Погода в Дальнем

Россия / Калининградская область     54°46′29″N   21°31′18″E
темп.,
°C
ветер,
м/с
пор.,
м/с
влажн.,
%
обл.,
%
осадки,
мм/ч
давл.,
гПа
погр.,
м
14 июня, пн
пн1423:00+11сз310810 0.0 1019317
02:00+8ссз23935 0.0 102042
05:00+8ссв118967 0.0 102110
08:00+14всв126016 0.0 1021347
11:00+19всв1247100 0.0 10211121
14:00+21ююз12445 0.0 10201557
17:00+21з23538 0.0 10191514
20:00+16сз11824 0.0 101815
15 июня, вт
вт1523:00+12ю33861 0.0 101852
02:00+12ююз3109472 0.0 1017194
05:00+13ююз31087100 0.0 1016215
08:00+18зюз4976100 0.0 1016409
11:00+20з467397 0.0 1016941
14:00+17сз4782100 0.6 1016701
17:00+17сз475516 0.0 1017842
20:00+14сз368028 0.0 1017322
16 июня, ср
ср1623:00+9зсз229638 0.0 101930
02:00+9зюз229530 0.0 101916
05:00+9юз22947 0.0 102022
08:00+15ююз237252 0.0 1020372
11:00+20юз225349 0.0 10211257
14:00+22з224957 0.0 10201784
17:00+20ссз325921 0.0 1021977
20:00+16ссз23795 0.0 102166
17 июня, чт
чт1723:00+12всв12870 0.0 102211
02:00+11вюв22925 0.0 102319
05:00+11ююв22920 0.0 102341
08:00+17юв23690 0.0 1024338
11:00+22юв34530 0.0 10241076
14:00+24юв33475 0.0 10231376
17:00+24юв34530 0.0 10221349
20:00+20юв22810 0.0 102241
18 июня, пт
пт1823:00+15юв34810 0.0 102350
02:00+14юв36900 0.0 1023101
05:00+13ююв36920 0.0 1023100
08:00+20ююв36710 0.0 1023344
11:00+25ююв46585 0.0 1022979
14:00+28ю47545 0.0 10211505
17:00+28ююв47580 0.0 10201414
20:00+24ююв310771 0.0 1020328